This demonstration page uses our WeatherBlox Daily Observations layout. Learn more.

Left ArrowRight Arrow

Hourly Observations for June 10, 2021

Temp ( °F °C ) Dew Point ( °F °C ) Humidity (%) Winds ( mph kmh ) Pressure ( in mb ) Visibility ( mi km ) Precip ( " mm )
12:53 am 00:53 Clear 83 28.3 71 21.7 67 67 SSE 18 30 29.79 1009 7 11 0.00 0.00
1:53 am 01:53 Clear 82 27.8 70 21.1 67 67 SSE 20 31 29.76 1008 7 11 0.00 0.00
2:53 am 02:53 Clear 81 27.2 69 20.6 67 67 SE 16 26 29.75 1007 8 13 0.00 0.00
3:53 am 03:53 Clear 79 26.1 69 20.6 72 72 SE 13 20 29.75 1007 8 13 0.00 0.00
4:53 am 04:53 Clear 78 25.6 70 21.1 76 76 SE 12 19 29.74 1007 8 13 0.00 0.00
5:53 am 05:53 Clear 76 24.4 70 21.1 82 82 ESE 6 9 29.76 1008 7 11 0.00 0.00
6:53 am 06:53 Sunny 75 23.9 70 21.1 84 84 SE 9 15 29.77 1008 7 11 0.00 0.00
7:53 am 07:53 Sunny 76 24.4 70 21.1 82 82 SE 9 15 29.78 1009 7 11 0.00 0.00
8:53 am 08:53 Sunny 80 26.7 70 21.1 71 71 SE 9 15 29.79 1009 9 14 0.00 0.00
9:53 am 09:53 Sunny 86 30 68 20 55 55 SE 7 11 29.79 1009 10 16 0.00 0.00
10:53 am 10:53 Sunny 91 32.8 66 18.9 44 44 Calm 29.78 1008 10 16 0.00 0.00
11:53 am 11:53 Sunny 96 35.6 64 17.8 35 35 VRB 5 7 29.76 1008 10 16 0.00 0.00
12:53 pm 12:53 Sunny 99 37.2 61 16.1 29 29 VRB 3 6 29.74 1007 10 16 0.00 0.00
1:53 pm 13:53 Sunny 103 39.4 57 13.9 22 22 VRB 3 6 29.71 1006 10 16 0.00 0.00
2:53 pm 14:53 Sunny 106 41.1 57 13.9 20 20 S 7 11 29.69 1005 10 16 0.00 0.00
3:53 pm 15:53 Sunny 108 42.2 51 10.6 15 15 VRB 3 6 29.67 1005 10 16 0.00 0.00
4:53 pm 16:53 Sunny 107 41.7 48 8.9 14 14 Calm 29.64 1004 10 16 0.00 0.00
5:53 pm 17:53 Sunny 108 42.2 42 5.6 11 11 S 5 7 29.62 1003 10 16 0.00 0.00
6:53 pm 18:53 Sunny 107 41.7 44 6.7 12 12 S 3 6 29.60 1003 10 16 0.00 0.00
7:39 pm 19:39 Sunny 102 38.9 64 17.8 29 29 SE 24 39 29.49 999 10 16 0.00 0.00
7:53 pm 19:53 Sunny 101 38.3 65 18.3 31 31 SSE 23 37 29.61 1003 10 16 0.00 0.00
8:53 pm 20:53 Sunny 96 35.6 65 18.3 36 36 SE 20 31 29.63 1003 10 16 0.00 0.00
9:53 pm 21:53 Clear 91 32.8 66 18.9 44 44 SSE 22 35 29.65 1004 10 16 0.00 0.00
10:53 pm 22:53 Clear 88 31.1 67 19.4 50 50 SSE 18 30 29.67 1005 10 16 0.00 0.00
11:53 pm 23:53 Clear 86 30 69 20.6 57 57 SSE 20 31 29.68 1005 10 16 0.00 0.00

Powered by AerisWeather